EW6606 Weather Reports


Display with metric or nautical units.
time (UTC)temp
F
wind
direction
speed
MPH
gust
MPH
rain 1hr
in
rain 24hr
in
rain mn
in
humidity
%
barometer
mb
20260901084552 75 25 0.0 1.0 0.00 0.00 0.00 85 1018.9
20260901084048 75 0 0.0 1.0 0.00 0.00 0.00 85 1018.9
20260901083548 75 246 0.0 1.0 0.00 0.00 0.00 85 1018.9
20260901083046 75 348 0.0 2.0 0.00 0.00 0.00 85 1019.0
20260901082541 75 35 0.0 2.0 0.00 0.00 0.00 84 1018.9
20260901082037 75 126 0.0 2.0 0.00 0.00 0.00 84 1018.8
20260901081532 76 49 0.0 1.0 0.00 0.00 0.00 84 1018.8
20260901081026 76 25 0.0 1.0 0.00 0.00 0.00 84 1019.0
20260901080526 76 321 0.0 1.0 0.00 0.00 0.00 84 1018.7
20260901080020 76 315 0.0 0.0 0.00 0.00 0.00 84 1018.8
20260901075516 76 304 0.0 1.0 0.00 0.00 0.00 84 1018.7
20260901075015 76 35 0.0 1.0 0.00 0.00 0.00 84 1018.6
20260901074514 76 117 0.0 0.0 0.00 0.00 0.00 84 1018.8
20260901074009 76 129 0.0 1.0 0.00 0.00 0.00 84 1018.7
20260901073506 76 129 0.0 1.0 0.00 0.00 0.00 84 1018.7
20260901073001 76 142 0.0 1.0 0.00 0.00 0.00 84 1018.8
20260901072455 76 49 0.0 0.0 0.00 0.00 0.00 84 1018.9
20260901071945 76 49 0.0 0.0 0.00 0.00 0.00 84 1018.8
20260901071444 76 30 0.0 1.0 0.00 0.00 0.00 84 1018.8
20260901070943 76 7 0.0 0.0 0.00 0.00 0.00 84 1018.7
20260901070439 76 7 0.0 0.0 0.00 0.00 0.00 84 1018.7
20260901065937 76 7 0.0 0.0 0.00 0.00 0.00 84 1018.8
20260901065434 76 7 0.0 1.0 0.00 0.00 0.00 84 1018.7
20260901064928 76 150 0.0 0.0 0.00 0.00 0.00 84 1018.7
20260901064425 76 157 0.0 1.0 0.00 0.00 0.00 84 1018.6
20260901063922 76 154 0.0 0.0 0.00 0.00 0.00 84 1018.9
20260901063418 76 154 0.0 0.0 0.00 0.00 0.00 84 1018.9
20260901062914 77 129 0.0 1.0 0.00 0.00 0.00 84 1018.9
20260901062410 77 158 0.0 2.0 0.00 0.00 0.00 84 1018.9
20260901061905 77 129 0.0 0.0 0.00 0.00 0.00 84 1019.0
20260901061401 77 129 0.0 0.0 0.00 0.00 0.00 84 1018.9
20260901060855 77 129 0.0 0.0 0.00 0.00 0.00 83 1018.7
20260901060351 77 129 0.0 0.0 0.00 0.00 0.00 83 1018.9
20260901055850 77 129 0.0 0.0 0.00 0.00 0.00 83 1018.8
20260901055347 77 129 0.0 0.0 0.00 0.00 0.00 83 1018.9
20260901054843 77 120 1.0 2.0 0.00 0.00 0.00 83 1018.8
20260901054341 77 142 0.0 1.0 0.00 0.00 0.00 83 1018.8
20260901053836 77 113 0.0 0.0 0.00 0.00 0.00 82 1018.7
20260901053331 77 113 0.0 0.0 0.00 0.00 0.00 82 1018.8
20260901052827 77 113 0.0 1.0 0.00 0.00 0.00 82 1018.8
20260901052322 77 37 0.0 0.0 0.00 0.00 0.00 82 1018.9
20260901051820 77 37 0.0 0.0 0.00 0.00 0.00 82 1018.8
20260901051316 77 37 0.0 0.0 0.00 0.00 0.00 82 1019.0
20260901050811 77 37 0.0 0.0 0.00 0.00 0.00 82 1018.9
20260901050306 77 37 0.0 0.0 0.00 0.00 0.00 82 1018.9
20260901045756 77 37 0.0 1.0 0.00 0.00 0.00 82 1018.9
20260901045250 77 154 0.0 0.0 0.00 0.00 0.00 81 1018.8
20260901044746 77 154 0.0 1.0 0.00 0.00 0.00 81 1018.8
20260901044242 78 131 0.0 1.0 0.00 0.00 0.00 80 1018.9
20260901043737 78 142 0.0 1.0 0.00 0.00 0.00 80 1018.9
20260901043233 78 25 0.0 0.0 0.00 0.00 0.00 79 1018.8
20260901042732 78 25 0.0 0.0 0.00 0.00 0.00 79 1018.9
20260901042226 78 25 0.0 0.0 0.00 0.00 0.00 79 1018.9
20260901041723 78 157 0.0 0.0 0.00 0.00 0.00 79 1018.9
20260901041222 78 157 0.0 0.0 0.00 0.00 0.00 78 1018.9
20260901040717 78 157 0.0 0.0 0.00 0.00 0.00 78 1019.0
20260901040216 78 157 0.0 1.0 0.00 0.00 0.00 78 1019.1
20260901035715 79 142 0.0 0.0 0.00 0.00 0.00 78 1018.9
20260901035214 79 142 0.0 0.0 0.00 0.00 0.00 77 1019.0
20260901034708 79 142 0.0 0.0 0.00 0.00 0.00 77 1019.2
20260901034203 79 142 0.0 1.0 0.00 0.00 0.00 77 1019.2
20260901033702 80 141 0.0 1.0 0.00 0.00 0.00 76 1019.2
20260901033202 80 62 0.0 0.0 0.00 0.00 0.00 76 1019.4
20260901032700 80 62 0.0 0.0 0.00 0.00 0.00 75 1019.3
20260901032154 80 62 0.0 1.0 0.00 0.00 0.00 75 1019.1
20260901031645 80 89 0.0 1.0 0.00 0.00 0.00 74 1019.3
20260901031141 80 37 0.0 0.0 0.00 0.00 0.00 74 1019.2
20260901030641 80 82 0.0 1.0 0.00 0.00 0.00 74 1019.3
20260901030135 81 117 0.0 0.0 0.00 0.00 0.00 73 1019.3
20260901025630 81 117 0.0 1.0 0.00 0.00 0.00 73 1019.2
20260901025125 81 129 0.0 0.0 0.00 0.00 0.00 72 1019.3
20260901024624 81 129 0.0 0.0 0.00 0.00 0.00 72 1019.5
20260901024123 81 129 0.0 0.0 0.00 0.00 0.00 71 1019.2
20260901023623 81 129 0.0 0.0 0.00 0.00 0.00 71 1019.2
20260901023117 81 129 0.0 0.0 0.00 0.00 0.00 71 1019.3
20260901022613 82 129 0.0 1.0 0.00 0.00 0.00 70 1019.3
20260901022108 82 142 0.0 1.0 0.00 0.00 0.00 70 1019.2
20260901021604 82 129 0.0 0.0 0.00 0.00 0.00 69 1019.2
20260901021058 82 129 0.0 1.0 0.00 0.00 0.00 69 1019.1
20260901020554 83 142 0.0 0.0 0.00 0.00 0.00 68 1019.1
20260901020049 83 142 0.0 0.0 0.00 0.00 0.00 68 1019.1
20260901015545 83 142 0.0 0.0 0.00 0.00 0.00 68 1019.0
20260901015044 83 164 0.0 1.0 0.00 0.00 0.00 68 1018.9
20260901014540 83 117 0.0 0.0 0.00 0.00 0.00 67 1018.8
20260901014036 83 134 0.0 1.0 0.00 0.00 0.00 67 1018.9
20260901013531 84 135 0.0 0.0 0.00 0.00 0.00 66 1018.6
20260901013027 84 135 0.0 1.0 0.00 0.00 0.00 65 1018.6
20260901012526 84 142 0.0 1.0 0.00 0.00 0.00 64 1018.4
20260901012022 85 166 0.0 1.0 0.00 0.00 0.00 64 1018.3
20260901011519 85 205 0.0 1.0 0.00 0.00 0.00 63 1018.5
20260901011016 85 117 0.0 0.0 0.00 0.00 0.00 63 1018.3
20260901010511 86 117 0.0 1.0 0.00 0.00 0.00 63 1018.2
20260901010011 86 117 0.0 1.0 0.00 0.00 0.00 62 1018.0
20260901005505 86 124 0.0 0.0 0.00 0.00 0.00 61 1018.1
20260901005000 87 120 0.0 2.0 0.00 0.00 0.00 60 1018.0
20260901004500 87 117 0.0 1.0 0.00 0.00 0.00 60 1018.0
20260901003955 87 117 0.0 0.0 0.00 0.00 0.00 59 1018.0
20260901003450 87 124 0.0 1.0 0.00 0.00 0.00 59 1017.9
20260901002948 88 135 0.0 2.0 0.00 0.00 0.00 59 1017.9
20260901002448 88 142 1.0 2.0 0.00 0.00 0.00 58 1017.8
20260901001942 88 129 0.0 0.0 0.00 0.00 0.00 57 1017.8
20260901001438 88 129 0.0 1.0 0.00 0.00 0.00 57 1018.0
20260901000933 89 135 0.0 1.0 0.00 0.00 0.00 57 1018.0
20260901000428 89 77 0.0 3.0 0.00 0.00 0.00 57 1017.9
20260831235926 89 104 0.0 1.0 0.00 0.00 0.00 56 1018.1
20260831235423 89 100 0.0 2.0 0.00 0.00 0.00 56 1017.9
20260831234917 90 117 0.0 2.0 0.00 0.00 0.00 55 1017.8
20260831234412 90 55 0.0 2.0 0.00 0.00 0.00 55 1017.9
20260831233907 90 130 0.0 2.0 0.00 0.00 0.00 54 1017.9
20260831233402 90 147 0.0 3.0 0.00 0.00 0.00 54 1017.9
20260831232858 90 156 1.0 5.0 0.00 0.00 0.00 53 1018.0
20260831232353 90 193 1.0 2.0 0.00 0.00 0.00 53 1017.9
20260831231849 90 136 0.0 3.0 0.00 0.00 0.00 53 1017.9
20260831231346 90 199 0.0 1.0 0.00 0.00 0.00 53 1017.8
20260831230841 90 160 0.0 1.0 0.00 0.00 0.00 53 1017.9
20260831230335 90 205 0.0 0.0 0.00 0.00 0.00 53 1018.1
20260831225830 91 180 0.0 2.0 0.00 0.00 0.00 53 1018.1
20260831225324 91 89 0.0 1.0 0.00 0.00 0.00 52 1018.1
20260831224820 92 74 2.0 2.0 0.00 0.00 0.00 51 1018.0
20260831224315 92 72 1.0 3.0 0.00 0.00 0.00 51 1018.0
20260831223810 93 105 0.0 4.0 0.00 0.00 0.00 50 1018.1
20260831223306 93 140 4.0 4.0 0.00 0.00 0.00 49 1018.0
20260831222803 93 44 1.0 4.0 0.00 0.00 0.00 50 1017.9
20260831222258 93 131 2.0 4.0 0.00 0.00 0.00 49 1017.9
20260831221753 93 131 3.0 4.0 0.00 0.00 0.00 49 1018.0
20260831221248 93 324 1.0 3.0 0.00 0.00 0.00 50 1018.1
20260831220743 93 308 1.0 3.0 0.00 0.00 0.00 50 1018.1
20260831220238 93 0 2.0 3.0 0.00 0.00 0.00 49 1018.1
20260831215733 93 339 2.0 3.0 0.00 0.00 0.00 51 1018.0
20260831215229 92 183 0.0 5.0 0.00 0.00 0.00 49 1018.0
20260831214725 93 60 1.0 3.0 0.00 0.00 0.00 49 1018.1
20260831214222 93 197 3.0 4.0 0.00 0.00 0.00 49 1018.3
20260831213717 93 142 0.0 2.0 0.00 0.00 0.00 49 1018.3
20260831213214 93 6 0.0 2.0 0.00 0.00 0.00 51 1018.3
20260831212709 92 330 1.0 3.0 0.00 0.00 0.00 51 1018.2
20260831212206 92 8 0.0 2.0 0.00 0.00 0.00 52 1018.3
20260831211704 92 333 2.0 3.0 0.00 0.00 0.00 51 1018.3
20260831211159 92 297 0.0 1.0 0.00 0.00 0.00 51 1018.5
20260831210654 92 12 0.0 2.0 0.00 0.00 0.00 51 1018.4
20260831210150 92 356 1.0 2.0 0.00 0.00 0.00 50 1018.7
20260831205649 92 336 0.0 1.0 0.00 0.00 0.00 49 1018.6
20260831205145 92 167 2.0 3.0 0.00 0.00 0.00 49 1018.6
20260831204645 92 138 2.0 4.0 0.00 0.00 0.00 48 1018.4
20260831204143 93 85 3.0 7.0 0.00 0.00 0.00 47 1018.6
20260831203638 94 150 4.0 9.0 0.00 0.00 0.00 48 1018.5
20260831203138 94 164 2.0 5.0 0.00 0.00 0.00 48 1018.4
20260831202636 94 247 3.0 5.0 0.00 0.00 0.00 50 1018.6
20260831202131 94 82 3.0 4.0 0.00 0.00 0.00 50 1018.8
20260831201630 94 189 2.0 5.0 0.00 0.00 0.00 50 1018.8
20260831201125 93 342 3.0 3.0 0.00 0.00 0.00 53 1018.9
20260831200621 92 48 2.0 3.0 0.00 0.00 0.00 53 1019.1
20260831200116 92 126 2.0 3.0 0.00 0.00 0.00 54 1019.0
20260831195612 91 255 0.0 2.0 0.00 0.00 0.00 55 1019.0
20260831195107 91 333 0.0 0.0 0.00 0.00 0.00 55 1019.1
20260831194602 91 1 0.0 1.0 0.00 0.00 0.00 55 1019.2
20260831194056 91 359 2.0 2.0 0.00 0.00 0.00 54 1019.2
20260831193552 92 331 1.0 2.0 0.00 0.00 0.00 54 1019.2
20260831193051 92 284 0.0 2.0 0.00 0.00 0.00 53 1019.2
20260831192547 92 352 0.0 2.0 0.00 0.00 0.00 53 1019.4
20260831192042 92 348 1.0 4.0 0.00 0.00 0.00 53 1019.4
20260831191538 92 38 0.0 2.0 0.00 0.00 0.00 53 1019.4
20260831191033 92 269 2.0 2.0 0.00 0.00 0.00 52 1019.5
20260831190529 92 0 3.0 4.0 0.00 0.00 0.00 52 1019.4
20260831190027 91 6 2.0 3.0 0.00 0.00 0.00 55 1019.7
20260831185523 91 196 2.0 4.0 0.00 0.00 0.00 54 1019.5
20260831185019 90 190 3.0 3.0 0.00 0.00 0.00 55 1019.8
20260831184513 91 232 1.0 2.0 0.00 0.00 0.00 57 1019.8
20260831184008 91 343 0.0 2.0 0.00 0.00 0.00 56 1020.0
20260831183507 91 280 1.0 2.0 0.00 0.00 0.00 56 1019.9
20260831183007 91 321 0.0 3.0 0.00 0.00 0.00 55 1019.9
20260831182502 91 262 3.0 5.0 0.00 0.00 0.00 56 1020.2
20260831181957 91 7 0.0 2.0 0.00 0.00 0.00 56 1020.2
20260831181447 91 244 4.0 6.0 0.00 0.00 0.00 56 1020.1
20260831180942 91 290 2.0 3.0 0.00 0.00 0.00 56 1020.2
20260831180441 91 317 0.0 5.0 0.00 0.00 0.00 58 1020.3
20260831175941 90 355 2.0 3.0 0.00 0.00 0.00 58 1020.3
20260831175437 91 331 2.0 2.0 0.00 0.00 0.00 56 1020.2
20260831174933 91 19 2.0 3.0 0.00 0.00 0.00 55 1020.5
20260831174428 92 343 3.0 4.0 0.00 0.00 0.00 55 1020.4
20260831173927 91 75 0.0 7.0 0.00 0.00 0.00 55 1020.5
20260831173426 91 199 1.0 8.0 0.00 0.00 0.00 54 1020.6
20260831172922 91 137 4.0 5.0 0.00 0.00 0.00 56 1020.5
20260831172418 91 81 4.0 5.0 0.00 0.00 0.00 55 1020.7
20260831171918 91 167 4.0 5.0 0.00 0.00 0.00 56 1020.7
20260831171414 90 216 2.0 6.0 0.00 0.00 0.00 59 1020.8
20260831170911 90 192 5.0 8.0 0.00 0.00 0.00 58 1020.8
20260831170407 89 202 1.0 2.0 0.00 0.00 0.00 62 1020.8
20260831165903 89 240 0.0 3.0 0.00 0.00 0.00 62 1021.0
20260831165358 89 0 2.0 3.0 0.00 0.00 0.00 61 1020.8
20260831164855 89 187 2.0 4.0 0.00 0.00 0.00 61 1021.1
20260831164351 89 60 2.0 6.0 0.00 0.00 0.00 60 1021.1
20260831163846 90 177 2.0 8.0 0.00 0.00 0.00 60 1021.3
20260831163342 89 122 2.0 7.0 0.00 0.00 0.00 60 1021.3
20260831162840 89 194 2.0 10.0 0.00 0.00 0.00 61 1021.4
20260831162336 89 289 0.0 5.0 0.00 0.00 0.00 61 1021.2
20260831161834 89 219 2.0 6.0 0.00 0.00 0.00 61 1021.5
20260831161331 89 106 4.0 7.0 0.00 0.00 0.00 61 1021.5
20260831160826 89 192 6.0 9.0 0.00 0.00 0.00 61 1021.7
20260831160325 88 181 5.0 5.0 0.00 0.00 0.00 63 1021.7
20260831155820 88 206 2.0 5.0 0.00 0.00 0.00 64 1021.7
20260831155315 87 141 3.0 8.0 0.00 0.00 0.00 65 1021.7
20260831154811 87 214 0.0 2.0 0.00 0.00 0.00 66 1021.6
20260831154308 87 205 0.0 8.0 0.00 0.00 0.00 67 1021.7
20260831153805 87 120 2.0 6.0 0.00 0.00 0.00 68 1021.8
20260831153302 86 211 0.0 7.0 0.00 0.00 0.00 68 1021.6
20260831152758 87 198 3.0 6.0 0.00 0.00 0.00 67 1021.7
20260831152253 86 65 1.0 3.0 0.00 0.00 0.00 69 1021.7
20260831151748 86 123 3.0 8.0 0.00 0.00 0.00 69 1021.7
20260831151247 86 184 4.0 6.0 0.00 0.00 0.00 69 1021.6
20260831150742 86 336 1.0 2.0 0.00 0.00 0.00 70 1021.6
20260831150238 85 170 3.0 3.0 0.00 0.00 0.00 71 1021.5
20260831145736 85 161 3.0 7.0 0.00 0.00 0.00 70 1021.6
20260831145233 85 153 3.0 4.0 0.00 0.00 0.00 71 1021.7
20260831144728 85 165 3.0 4.0 0.00 0.00 0.00 74 1021.6
20260831144225 84 282 0.0 4.0 0.00 0.00 0.00 75 1021.7
20260831143724 84 166 2.0 4.0 0.00 0.00 0.00 75 1021.8
20260831143220 83 198 0.0 3.0 0.00 0.00 0.00 76 1021.6
20260831142715 83 329 0.0 3.0 0.00 0.00 0.00 76 1021.8
20260831142210 83 115 3.0 4.0 0.00 0.00 0.00 77 1021.6
20260831141710 82 109 5.0 6.0 0.00 0.00 0.00 77 1021.8
20260831141205 82 133 3.0 4.0 0.00 0.00 0.00 77 1021.8
20260831140704 82 127 3.0 6.0 0.00 0.00 0.00 78 1021.6
20260831140159 81 158 1.0 4.0 0.00 0.00 0.00 79 1021.8
20260831135657 81 135 1.0 4.0 0.00 0.00 0.00 79 1021.9
20260831135153 81 197 2.0 4.0 0.00 0.00 0.00 79 1021.9
20260831134649 80 124 4.0 7.0 0.00 0.00 0.00 80 1021.8
20260831134144 80 214 2.0 5.0 0.00 0.00 0.00 81 1021.9
20260831133643 80 111 3.0 6.0 0.00 0.00 0.00 81 1022.0
20260831133138 79 121 5.0 6.0 0.00 0.00 0.00 82 1021.8
20260831132634 79 138 3.0 5.0 0.00 0.00 0.00 82 1021.8
20260831132133 79 175 2.0 5.0 0.00 0.00 0.00 82 1021.7
20260831131628 78 124 3.0 5.0 0.00 0.00 0.00 83 1021.8
20260831131124 78 114 2.0 4.0 0.00 0.00 0.00 83 1021.7
20260831130619 78 122 2.0 4.0 0.00 0.00 0.00 84 1021.6
20260831130115 77 185 2.0 5.0 0.00 0.00 0.00 84 1021.7
20260831125613 77 127 3.0 6.0 0.00 0.00 0.00 85 1021.6
20260831125109 77 192 2.0 5.0 0.00 0.00 0.00 85 1021.5
20260831124605 76 179 2.0 4.0 0.00 0.00 0.00 86 1021.6
20260831124101 76 169 0.0 3.0 0.00 0.00 0.00 86 1021.4
20260831123600 76 111 2.0 3.0 0.00 0.00 0.00 86 1021.2
20260831123054 76 118 2.0 3.0 0.00 0.00 0.00 87 1021.3
20260831122554 75 142 1.0 4.0 0.00 0.00 0.00 87 1021.3
20260831122051 75 124 1.0 2.0 0.00 0.00 0.00 87 1021.0
20260831121550 75 187 3.0 8.0 0.00 0.00 0.00 88 1020.8
20260831121046 75 146 2.0 6.0 0.00 0.00 0.00 88 1020.6
20260831120545 74 161 2.0 4.0 0.00 0.00 0.00 88 1020.5
20260831120041 74 188 0.0 3.0 0.00 0.00 0.00 89 1020.7
20260831115537 74 171 1.0 3.0 0.00 0.00 0.00 89 1020.6
20260831115032 74 155 0.0 2.0 0.00 0.00 0.00 89 1020.5
20260831114531 74 175 0.0 3.0 0.00 0.00 0.00 89 1020.5
20260831114026 74 161 0.0 2.0 0.00 0.00 0.00 89 1020.4
20260831113525 74 174 2.0 3.0 0.00 0.00 0.00 89 1020.4
20260831113021 74 149 1.0 2.0 0.00 0.00 0.00 88 1020.2
20260831112520 74 175 1.0 2.0 0.00 0.00 0.00 88 1020.3
20260831112016 74 145 1.0 2.0 0.00 0.00 0.00 88 1020.4
20260831111512 74 181 1.0 3.0 0.00 0.00 0.00 88 1020.2
20260831111007 74 174 2.0 3.0 0.00 0.00 0.00 87 1020.2
20260831110502 74 157 1.0 2.0 0.00 0.00 0.00 87 1020.1
20260831110001 74 154 0.0 1.0 0.00 0.00 0.00 86 1020.0
20260831105456 74 129 0.0 2.0 0.00 0.00 0.00 86 1020.1
20260831104951 75 154 0.0 0.0 0.00 0.00 0.00 86 1019.9
20260831104447 75 154 0.0 0.0 0.00 0.00 0.00 86 1020.0
20260831103943 75 154 0.0 1.0 0.00 0.00 0.00 86 1020.0
20260831103438 75 189 1.0 2.0 0.00 0.00 0.00 87 1019.8
20260831102933 75 186 0.0 3.0 0.00 0.00 0.00 87 1019.7
20260831102433 75 157 0.0 3.0 0.00 0.00 0.00 87 1019.6
20260831101928 75 171 2.0 3.0 0.00 0.00 0.00 87 1019.6
20260831101423 75 186 1.0 3.0 0.00 0.00 0.00 86 1019.8
20260831100920 75 169 1.0 3.0 0.00 0.00 0.00 86 1019.6
20260831100415 75 181 2.0 3.0 0.00 0.00 0.00 86 1019.8
20260831095910 75 165 2.0 3.0 0.00 0.00 0.00 86 1019.9
20260831095409 75 146 1.0 3.0 0.00 0.00 0.00 86 1019.7
20260831094904 75 179 1.0 3.0 0.00 0.00 0.00 85 1019.8
20260831094400 75 174 2.0 2.0 0.00 0.00 0.00 85 1019.6
20260831093855 75 179 1.0 2.0 0.00 0.00 0.00 85 1019.6
20260831093345 75 159 1.0 2.0 0.00 0.00 0.00 86 1019.6
20260831092842 75 138 2.0 3.0 0.00 0.00 0.00 86 1019.3
20260831092337 75 173 2.0 3.0 0.00 0.00 0.00 86 1019.4
20260831091832 75 138 1.0 3.0 0.00 0.00 0.00 86 1019.5
20260831091328 75 186 3.0 3.0 0.00 0.00 0.00 86 1019.5
20260831090823 75 192 2.0 3.0 0.00 0.00 0.00 86 1019.5
20260831090319 75 182 2.0 3.0 0.00 0.00 0.00 86 1019.5
20260831085815 75 175 2.0 3.0 0.00 0.00 0.00 85 1019.3
20260831085309 75 150 2.0 3.0 0.00 0.00 0.00 85 1019.3